This site uses a module created by best online poker sites.

BSB police report ending January 3, 2018

Print
"01/02/2018","00:22","218CR0000079","WELFARE CHECK","WELFARE CHECK","12 LAIRD","",""
"01/02/2018","01:51","218CR0000080","DISTURBANCE","DISTURBANCE","207 W PARK APT","",""
"01/02/2018","01:52","218CR0000081","WELFARE CHECK","WELFARE CHECK","227 S WASHINGTON","",""
"01/02/2018","03:17","218CR0000082","T/S","T/S @ GARLAND AND HARRISON AVE","GARLAND AND HARRISON AVE","",""
"01/02/2018","03:25","218CR0000083","DISTURBANCE","DISTURBANCE","1125 S MAIN APT115","",""
"01/02/2018","03:26","218CR0000084","MEDICAL - EMERGENCY","MEDICAL - EMERGENCY","834 W QUARTZ","",""
"01/02/2018","03:30","218CR0000085","SUSPICIOUS ACTIVITY","SUSPICIOUS ACTIVITY","20 S MONTANA ST","",""
"01/02/2018","04:11","218CR0000086","UNWANTED PERSON","UNWANTED PERSON","************","",""
"01/02/2018","04:17","218CR0000087","MEDICAL - EMERGENCY","MEDICAL - EMERGENCY","709 PLACER ST","",""
"01/02/2018","04:34","218CR0000088","MEDICAL - EMERGENCY","MEDICAL - EMERGENCY","3120 BAYARD","",""
"01/02/2018","04:38","218CR0000089","MEDICAL - EMERGENCY","MEDICAL - EMERGENCY","1125 S MAIN #115","",""
"01/02/2018","05:00","218CR0000090","ACCIDENT","ACCIDENT","225 N ALASKA","",""
"01/02/2018","06:55","218CR0000091","ALARM - BURGLARY","ALARM - BURGLARY","************","",""
"01/02/2018","07:58","218CR0000092","SUSPICIOUS ACTIVITY","SUSPICIOUS ACTIVITY","WEST END OF JOSSETTE","",""
"01/02/2018","08:00","218CR0000093","FIRE- GAS ODOR","FIRE- GAS ODOR","2930 MAMMOTH","",""
"01/02/2018","08:22","218CR0000094","FIRE - VEHICLE","FIRE - VEHICLE","115 // EXCELSIOR ST EXIT","",""
"01/02/2018","08:24","218CR0000095","MEDICAL - EMERGENCY","MEDICAL - EMERGENCY","2074 FLORIDA AVE","",""
"01/02/2018","08:29","218CR0000096","WELFARE CHECK","WELFARE CHECK","949 S MONTANA","",""
"01/02/2018","08:40","218CR0000097","DISTURBANCE","DISTURBANCE","2620 COLUSA ST","",""
"01/02/2018","08:43","218CR0000098","SUSPICIOUS ACTIVITY","SUSPICIOUS ACTIVITY","3636 HARRISON AVE","",""
"01/02/2018","08:55","218CR0000099","T/S","T/S","LEXINGTON AND DEWEY","",""
"01/02/2018","09:02","218CR0000100","MEDICAL - EMERGENCY","MEDICAL - EMERGENCY","3033 BUSCH #53","",""
"01/02/2018","09:04","218CR0000101","HARASSMENT","PRIVACY IN COMMUNICATION","225 N ALASKA","",""
"01/02/2018","09:26","218CR0000102","WELFARE CHECK","WELFARE CHECK","1119 CALIFORNIA AVE","",""
"01/02/2018","09:34","218CR0000103","ALARM - MEDICAL","ALARM - MEDICAL","************","",""
"01/02/2018","09:40","218CR0000104","LED BUSINESS","LED BUSINESS","155 W GRANITE","",""
"01/02/2018","09:54","218CR0000105","DETENTION BUSINESS","DETENTION BUSINESS","************","",""
"01/02/2018","10:00","218CR0000106","UNWANTED PERSON","UNWANTED PERSON","************","",""
"01/02/2018","10:47","218CR0000107","DISTURBANCE","DISTURBANCE","211 N MONTANA APT B","",""
"01/02/2018","11:05","218CR0000108","PARKING COMPLAINT","PARKING COMPLAINT","S EXCELSIOR AT OVERPASS","",""
"01/02/2018","11:16","218CR0000109","SNOW REMOVAL COMPLAINT","SNOW REMOVAL COMPLAINT","2000 BLK BANKS","",""
"01/02/2018","11:20","218CR0000110","VANDALISM/CRIMINAL MISCHIEF","VANDALISM/CRIMINAL MISCHIEF","1006 W QUARTZ","",""
"01/02/2018","11:42","218CR0000111","T/S","T/S @ FRONT AND UTAH","FRONT AND UTAH","",""
"01/02/2018","11:58","218CR0000112","T/S","CRIMINAL CONTEMPT","AMHERST AND SHERMAN","ARREST(s) MADE",""
"01/02/2018","12:18","218CR0000113","DISTURBANCE","DISTURBANCE","920 S MONTANA","",""
"01/02/2018","12:22","218CR0000114","WELFARE CHECK","WELFARE CHECK","820 CALEDONIA ST","",""
"01/02/2018","12:30","218CR0000115","CIVIL STANDBY","CIVIL STANDBY","634 W BROADWAY","",""
"01/02/2018","12:44","218CR0000116","UNWANTED PERSON","UNWANTED PERSON","************","",""
"01/02/2018","12:44","218CR0000117","ASSAULT","PFMA - MINOR INJ/PHYSICAL CONT","1501 4TH","",""
"01/02/2018","12:47","218CR0000118","CIVIL PAPER SERVICE","CIVIL PAPER SERVICE","3021 EAGLE","",""
"01/02/2018","13:11","218CR0000119","MEDICAL - EMERGENCY","MEDICAL - EMERGENCY","24 E COPPER","",""
"01/02/2018","13:25","218CR0000120","UNWANTED PERSON","FAILURE TO DISPERSE","1324 HARRISON","ARREST(s) MADE",""
"01/02/2018","13:37","218CR0000121","THEFT","THEFT, SHOPLIFT","3901 HARRISON AVE","",""
"01/02/2018","14:18","218CR0000122","WELFARE CHECK","WELFARE CHECK","4950 MOULTON RES RD","",""
"01/02/2018","14:21","218CR0000123","DETENTION BUSINESS","DETENTION BUSINESS","************","",""
"01/02/2018","14:28","218CR0000124","T/S","FAILURE TO WEAR SEATBELT","LEXINGTON AND DEWEY","",""
"01/02/2018","14:44","218CR0000125","ASSIST OTHER AGENCY","ASSIST OTHER AGENCY","620 1/2 S IDAHO","",""
"01/02/2018","15:01","218CR0000126","UNWANTED PERSON","UNWANTED PERSON","************","",""
"01/02/2018","15:14","218CR0000127","UNWANTED PERSON","UNWANTED PERSON","************","",""
"01/02/2018","15:23","218CR0000128","ASSIST OTHER AGENCY","ASSIST OTHER AGENCY","I90 MM 216 EB","",""
"01/02/2018","15:26","218CR0000129","HARASSMENT","HARASSMENT","729 W QUARTZ","",""
"01/02/2018","15:36","218CR0000130","DETENTION BUSINESS","DETENTION BUSINESS","************","",""
"01/02/2018","15:37","218CR0000131","CITIZEN AID","CITIZEN AID","225 N ALASKA","",""
"01/02/2018","15:55","218CR0000133","T/S","T/S @ LOCUST AND CONTINENTAL DR","LOCUST AND CONTINENTAL DR","",""
"01/02/2018","16:02","218CR0000135","ACCIDENT","ACCIDENT","LONGFELLOW AND WYNNE ST","",""
"01/02/2018","16:27","218CR0000137","ACCIDENT","ACCIDENT","1957 HARRISON AVE","",""
"01/02/2018","16:34","218CR0000138","JUVENILE MISC","JUVENILE MISC","************","",""
"01/02/2018","16:42","218CR0000139","ATL","ROBBERY","3900 JUPITER LANE","ARREST(s) MADE",""
"01/02/2018","16:43","218CR0000140","CIVIL STANDBY","CIVIL STANDBY","3400 HILL APT 1005","",""
"01/02/2018","17:01","218CR0000141","FIRE - VEHICLE","FIRE - VEHICLE","2900 BLK KEOKUK","",""
"01/02/2018","17:29","218CR0000142","SUSPICIOUS ACTIVITY","SUSPICIOUS ACTIVITY","1515 OREGON APT 806","",""
"01/02/2018","17:37","218CR0000143","T/S","T/S","BUTTE","",""
"01/02/2018","17:49","218CR0000144","ALL OTHER","ALL OTHER","1125 S MAIN ST #213","",""
"01/02/2018","18:14","218CR0000145","DISTURBANCE","DISTURBANCE","1431 MOTORVIEW","",""
"01/02/2018","18:42","218CR0000146","ALARM - BURGLARY","ALARM - BURGLARY","************","",""
"01/02/2018","18:47","218CR0000147","DISTURBANCE","DISTURBANCE","1013 S UTAH","",""
"01/02/2018","18:54","218CR0000148","MEDICAL - EMERGENCY","MEDICAL - EMERGENCY","304 N MAIN","",""
"01/02/2018","19:03","218CR0000149","DISTURBANCE","PFMA - REASONABLE APPREHENSION","1125 S MAIN #305","ARREST(s) MADE",""
"01/02/2018","19:09","218CR0000150","MEDICAL - EMERGENCY","MEDICAL - EMERGENCY","306 N MAIN APT B","",""
"01/02/2018","19:41","218CR0000151","T/S","T/S @ PIRATES TRESURE CASINO","PIRATES TRESURE CASINO","",""
"01/02/2018","19:55","218CR0000152","T/S","T/S @ FARRELL AND THORTON","FARRELL AND THORTON","",""
"01/02/2018","20:05","218CR0000153","T/S","T/S @ PARK AND EXCLSIOR","PARK AND EXCLSIOR","",""
"01/02/2018","20:06","218CR0000154","DISTURBANCE","DISTURBANCE","1129 W GRANITE","",""
"01/02/2018","20:58","218CR0000155","WELFARE CHECK","WELFARE CHECK","810 TRAVONIA","",""
"01/02/2018","20:59","218CR0000156","DISTURBANCE","DISTURBANCE","1305 SILVERBOW HOMES","",""
"01/02/2018","21:03","218CR0000157","SUICIDE ATTEMPT/THREAT","SUICIDE ATTEMPT/THREAT","************","",""
"01/02/2018","21:45","218CR0000158","SUSPICIOUS ACTIVITY","SUSPICIOUS ACTIVITY","HAGGIN VIEW ROAD","",""
"01/02/2018","22:19","218CR0000159","T/S","NO LIABILITY INSURANCE IN EFF.","TEXAS AND GEORGE","",""
"01/02/2018","22:47","218CR0000160","MEDICAL - ASSIST","MEDICAL - ASSIST","************","",""
"01/02/2018","23:00","218CR0000161","BURGLARY","BURGLARY, RESIDENCE","1932 OREGON AVE","",""
"01/02/2018","23:19","218CR0000162","MEDICAL - EMERGENCY","MEDICAL - EMERGENCY","1205 S MT # 19","",""
"01/02/2018","23:28","218CR0000163","UNKNOWN PROBLEM","UNKNOWN PROBLEM","1021 S ARIZONA ST","",""
"01/03/2018","00:06","218CR0000164","SUICIDE ATTEMPT/THREAT","SUICIDE ATTEMPT/THREAT","************","",""
"01/03/2018","00:25","218CR0000165","T/S","T/S @ ","","",""
"01/03/2018","01:11","218CR0000166","ACCIDENT","ACCIDENT","3221 HARRISON AVE","",""
"01/03/2018","02:58","218CR0000167","ACCIDENT","ACCIDENT","SAMPSON ST AND WYNNE AVE","",""
"01/03/2018","03:00","218CR0000168","MEDICAL - EMERGENCY","MEDICAL - EMERGENCY","119771 RICK JONES WAY","",""
"01/03/2018","03:27","218CR0000169","ASSIST OTHER AGENCY","ASSIST OTHER AGENCY","I15 MM 157 SB","",""
"01/03/2018","04:28","218CR0000170","ACCIDENT","ACCIDENT","I90 WB MM 229","",""
"01/03/2018","05:15","218CR0000171","T/S","T/S","2200 BLK AMHERST","",""
"01/03/2018","05:34","218CR0000172","MEDICAL - EMERGENCY","MEDICAL - EMERGENCY","1324 HARRISON","",""
"01/03/2018","06:04","218CR0000173","SUSPICIOUS ACTIVITY","SUSPICIOUS ACTIVITY","100 BLK N IDAHO","",""
"01/03/2018","07:00","218CR0000174","ALARM - BURGLARY","ALARM - BURGLARY","************","",""
"01/03/2018","07:35","218CR0000176","CIVIL STANDBY","CIVIL STANDBY","1001 N EMMETT ST","",""
"01/03/2018","08:43","218CR0000177","HIT AND RUN","HIT AND RUN","1130 W PARK","",""
 
Tuesday the 20th. Affiliate Marketing.
Copyright 2012

©